Simultaneous Nadir Overpasses (SNOs) Predictions

Prediction of SNOs between AURA and NPP Satellite Orbit:

Table of predicted SNOs for the next 14.0 days since TLE Epoch: 5/18/2024
Index Date (AURA) Time (AURA) Lat,Lon (AURA) SZA (AURA ) Date (NPP) Time (NPP) Lat,Lon (NPP) SZA (NPP ) Distance(km) Time Diff (sec)
1 05/19/2024 06:26:19 -80.63, 172.24 109.56 05/19/2024 06:26:21 -80.63, 172.32 109.57 1.51 2
2 05/21/2024 19:21:23 -80.56, -22.31 109.93 05/21/2024 19:20:15 -80.56, -22.14 109.91 3.16 68
3 05/21/2024 20:10:45 80.60, 145.74 70.00 05/21/2024 20:10:58 80.59, 145.60 70.02 2.58 13
4 05/24/2024 09:05:46 80.57, -48.30 69.59 05/24/2024 09:04:51 80.56, -48.31 69.63 0.46 55
5 05/24/2024 09:55:08 -80.62, 119.98 110.53 05/24/2024 09:55:34 -80.62, 119.86 110.53 2.11 26
6 05/26/2024 22:50:07 -80.59, -74.14 110.89 05/26/2024 22:49:27 -80.59, -74.13 110.86 0.27 40
7 05/26/2024 23:39:27 80.67, 94.50 68.95 05/26/2024 23:40:07 80.68, 94.60 68.90 1.99 40
8 05/29/2024 12:34:25 80.60,-100.10 68.71 05/29/2024 12:34:02 80.59,-100.19 68.74 1.65 23
9 05/29/2024 13:23:45 -80.71, 68.88 111.52 05/29/2024 13:24:42 -80.71, 69.03 111.58 2.73 57
10 06/01/2024 02:18:41 -80.63,-125.81 111.70 06/01/2024 02:18:37 -80.62,-125.86 111.68 0.99 4



Historial Predications of SNOs between AURA and NPP
